Year,Month,Day,Hour,Minute,Value (Times are PST for temperature in C)
2016,04,29,00,00,11.60
2016,04,29,00,01,11.60
2016,04,29,00,02,11.60
2016,04,29,00,03,11.60
2016,04,29,00,04,11.60
2016,04,29,00,05,11.60
2016,04,29,00,06,11.60
2016,04,29,00,07,11.60
2016,04,29,00,08,11.60
2016,04,29,00,09,11.60
2016,04,29,00,10,11.60
2016,04,29,00,11,11.60
2016,04,29,00,12,11.60
2016,04,29,00,13,11.60
2016,04,29,00,14,11.60
2016,04,29,00,15,11.60
2016,04,29,00,16,11.60
2016,04,29,00,17,11.60
2016,04,29,00,18,11.60
2016,04,29,00,19,11.60
2016,04,29,00,20,11.60
2016,04,29,00,21,11.60
2016,04,29,00,22,11.60
2016,04,29,00,23,11.60
2016,04,29,00,24,11.60
2016,04,29,01,22,11.60
2016,04,29,01,23,11.60
2016,04,29,01,24,11.60
2016,04,29,01,25,11.60
2016,04,29,01,26,11.40
2016,04,29,01,27,11.40
2016,04,29,01,28,11.40
2016,04,29,01,29,11.40
2016,04,29,01,30,11.40
2016,04,29,01,31,11.40
2016,04,29,01,32,11.40
2016,04,29,01,33,11.40
2016,04,29,01,34,11.40
2016,04,29,01,35,11.40
2016,04,29,01,36,11.40
2016,04,29,01,37,11.40
2016,04,29,01,38,11.40
2016,04,29,01,39,11.30
2016,04,29,01,40,11.30
2016,04,29,01,41,11.30
2016,04,29,01,42,11.30
2016,04,29,01,43,11.30
2016,04,29,01,44,11.20
2016,04,29,01,45,11.20
2016,04,29,01,46,11.20
2016,04,29,01,47,11.20
2016,04,29,01,48,11.20
2016,04,29,01,49,11.20
2016,04,29,01,50,11.20
2016,04,29,01,51,11.10
2016,04,29,01,52,11.10
2016,04,29,01,53,11.10
2016,04,29,01,54,11.10
2016,04,29,01,55,11.10
2016,04,29,01,56,11.10
2016,04,29,01,57,11.10
2016,04,29,01,58,11.10
2016,04,29,01,59,11.10
2016,04,29,02,00,11.10
2016,04,29,02,01,11.10
2016,04,29,02,02,11.10
2016,04,29,02,03,11.10
2016,04,29,02,04,11.10
2016,04,29,02,05,10.90
2016,04,29,02,06,10.90
2016,04,29,02,07,10.90
2016,04,29,02,08,10.90
2016,04,29,02,09,10.90
2016,04,29,02,10,10.90
2016,04,29,02,11,10.90
2016,04,29,02,12,10.90
2016,04,29,02,13,10.90
2016,04,29,02,14,10.90
2016,04,29,02,15,10.90
2016,04,29,02,16,10.90
2016,04,29,02,17,10.90
2016,04,29,02,18,10.90
2016,04,29,02,19,10.90
2016,04,29,02,21,10.90
2016,04,29,02,22,10.90
2016,04,29,02,23,10.90
2016,04,29,02,24,10.90
2016,04,29,02,26,10.90
2016,04,29,02,27,10.90
2016,04,29,02,28,10.90
2016,04,29,02,29,10.90
2016,04,29,02,31,10.90
2016,04,29,02,32,10.90
2016,04,29,02,33,10.90
2016,04,29,02,34,10.90
2016,04,29,02,36,10.90
2016,04,29,02,37,10.90
2016,04,29,02,38,10.90
2016,04,29,02,39,10.90
2016,04,29,02,41,10.90
2016,04,29,02,42,10.90
2016,04,29,02,43,10.90
2016,04,29,02,44,10.90
2016,04,29,02,46,10.80
2016,04,29,02,47,10.80
2016,04,29,02,48,10.80
2016,04,29,02,49,10.80
2016,04,29,02,51,10.70
2016,04,29,02,52,10.70
2016,04,29,02,53,10.70
2016,04,29,02,54,10.70
2016,04,29,02,56,10.70
2016,04,29,02,57,10.70
2016,04,29,02,58,10.60
2016,04,29,02,59,10.60
2016,04,29,03,01,10.60
2016,04,29,03,02,10.60
2016,04,29,03,03,10.60
2016,04,29,03,04,10.60
2016,04,29,03,06,10.60
2016,04,29,03,07,10.60
2016,04,29,03,08,10.60
2016,04,29,03,09,10.60
2016,04,29,03,11,10.60
2016,04,29,03,12,10.60
2016,04,29,03,13,10.60
2016,04,29,03,14,10.40
2016,04,29,03,16,10.40
2016,04,29,03,17,10.40
2016,04,29,03,18,10.40
2016,04,29,03,19,10.40
2016,04,29,04,22,10.30
2016,04,29,04,23,10.40
2016,04,29,04,24,10.40
2016,04,29,04,25,10.40
2016,04,29,04,26,10.40
2016,04,29,04,27,10.40
2016,04,29,04,28,10.40
2016,04,29,04,29,10.40
2016,04,29,04,30,10.40
2016,04,29,04,31,10.40
2016,04,29,04,32,10.40
2016,04,29,04,33,10.40
2016,04,29,04,34,10.40
2016,04,29,04,35,10.40
2016,04,29,04,36,10.40
2016,04,29,04,37,10.30
2016,04,29,04,38,10.30
2016,04,29,04,39,10.30
2016,04,29,04,40,10.30
2016,04,29,04,41,10.30
2016,04,29,04,42,10.30
2016,04,29,04,43,10.30
2016,04,29,04,44,10.30
2016,04,29,04,45,10.30
2016,04,29,04,46,10.30
2016,04,29,04,47,10.30
2016,04,29,04,48,10.30
2016,04,29,04,49,10.30
2016,04,29,04,50,10.30
2016,04,29,04,51,10.30
2016,04,29,04,52,10.30
2016,04,29,04,53,10.30
2016,04,29,04,54,10.30
2016,04,29,04,55,10.30
2016,04,29,04,56,10.30
2016,04,29,04,57,10.30
2016,04,29,04,58,10.30
2016,04,29,04,59,10.30
2016,04,29,05,00,10.30
2016,04,29,05,01,10.30
2016,04,29,05,02,10.30
2016,04,29,05,03,10.30
2016,04,29,05,04,10.30
2016,04,29,05,05,10.30
2016,04,29,05,06,10.30
2016,04,29,05,07,10.30
2016,04,29,05,08,10.30
2016,04,29,05,09,10.30
2016,04,29,05,10,10.30
2016,04,29,05,11,10.30
2016,04,29,05,12,10.30
2016,04,29,05,13,10.30
2016,04,29,05,14,10.30
2016,04,29,05,15,10.30
2016,04,29,05,16,10.30
2016,04,29,05,17,10.30
2016,04,29,05,18,10.30
2016,04,29,05,19,10.30
2016,04,29,05,20,10.30
2016,04,29,05,22,10.30
2016,04,29,05,23,10.30
2016,04,29,05,24,10.30
2016,04,29,05,26,10.30
2016,04,29,05,27,10.20
2016,04,29,05,28,10.30
2016,04,29,05,29,10.20
2016,04,29,05,31,10.20
2016,04,29,05,32,10.20
2016,04,29,05,33,10.20
2016,04,29,05,34,10.20
2016,04,29,05,36,10.20
2016,04,29,05,37,10.20
2016,04,29,05,38,10.20
2016,04,29,05,39,10.20
2016,04,29,05,41,10.20
2016,04,29,05,42,10.20
2016,04,29,05,43,10.20
2016,04,29,05,44,10.20
2016,04,29,05,46,10.20
2016,04,29,05,47,10.20
2016,04,29,05,48,10.20
2016,04,29,05,49,10.20
2016,04,29,05,51,10.20
2016,04,29,05,52,10.20
2016,04,29,05,53,10.20
2016,04,29,05,54,10.20
2016,04,29,05,56,10.20
2016,04,29,05,57,10.20
2016,04,29,05,58,10.20
2016,04,29,05,59,10.20
2016,04,29,06,01,10.20
2016,04,29,06,02,10.20
2016,04,29,07,22,10.40
2016,04,29,07,23,10.40
2016,04,29,07,24,10.60
2016,04,29,07,25,10.60
2016,04,29,07,26,10.60
2016,04,29,07,27,10.60
2016,04,29,07,28,10.60
2016,04,29,07,29,10.60
2016,04,29,07,30,10.60
2016,04,29,07,31,10.60
2016,04,29,07,32,10.60
2016,04,29,07,33,10.60
2016,04,29,07,34,10.60
2016,04,29,07,35,10.60
2016,04,29,07,36,10.60
2016,04,29,07,37,10.60
2016,04,29,07,38,10.60
2016,04,29,07,39,10.60
2016,04,29,07,40,10.60
2016,04,29,07,41,10.60
2016,04,29,07,42,10.60
2016,04,29,07,43,10.60
2016,04,29,07,44,10.60
2016,04,29,07,45,10.60
2016,04,29,07,46,10.60
2016,04,29,07,47,10.60
2016,04,29,07,48,10.60
2016,04,29,07,49,10.60
2016,04,29,07,50,10.60
2016,04,29,07,51,10.60
2016,04,29,07,52,10.60
2016,04,29,07,53,10.60
2016,04,29,07,54,10.60
2016,04,29,07,55,10.60
2016,04,29,07,56,10.60
2016,04,29,07,57,10.60
2016,04,29,07,58,10.60
2016,04,29,07,59,10.60
2016,04,29,08,00,10.60
2016,04,29,08,01,10.60
2016,04,29,08,02,10.60
2016,04,29,08,03,10.60
2016,04,29,08,04,10.60
2016,04,29,08,05,10.60
2016,04,29,08,06,10.60
2016,04,29,08,07,10.60
2016,04,29,08,08,10.60
2016,04,29,08,09,10.60
2016,04,29,08,10,10.70
2016,04,29,08,11,10.70
2016,04,29,08,12,10.70
2016,04,29,08,13,10.70
2016,04,29,08,14,10.70
2016,04,29,08,15,10.80
2016,04,29,08,17,10.80
2016,04,29,08,19,10.90
2016,04,29,08,21,10.90
2016,04,29,08,22,10.90
2016,04,29,08,23,10.90
2016,04,29,08,24,10.90
2016,04,29,08,26,11.10
2016,04,29,08,27,11.10
2016,04,29,08,28,11.10
2016,04,29,08,29,11.10
2016,04,29,08,31,11.20
2016,04,29,08,32,11.20
2016,04,29,08,33,11.20
2016,04,29,08,34,11.30
2016,04,29,08,36,11.30
2016,04,29,08,37,11.40
2016,04,29,08,38,11.40
2016,04,29,08,39,11.40
2016,04,29,08,41,11.40
2016,04,29,08,42,11.60
2016,04,29,08,43,11.60
2016,04,29,08,44,11.60
2016,04,29,08,46,11.60
2016,04,29,08,47,11.60
2016,04,29,08,48,11.60
2016,04,29,08,49,11.70
2016,04,29,08,51,11.70
2016,04,29,08,52,11.80
2016,04,29,08,53,11.80
2016,04,29,08,54,11.80
2016,04,29,08,56,11.80
2016,04,29,08,57,11.80
2016,04,29,08,58,11.90
2016,04,29,08,59,11.90
2016,04,29,09,01,11.90
2016,04,29,09,02,12.00
2016,04,29,09,03,12.00
2016,04,29,09,04,12.00
2016,04,29,09,06,12.00
2016,04,29,09,07,12.10
2016,04,29,09,08,12.10
2016,04,29,09,09,12.10
2016,04,29,09,11,12.20
2016,04,29,09,12,12.30
2016,04,29,09,13,12.30
2016,04,29,09,14,12.30
2016,04,29,09,16,12.30
2016,04,29,09,17,12.30
2016,04,29,09,18,12.30
2016,04,29,09,19,12.40
2016,04,29,09,21,12.40
2016,04,29,09,22,12.50
2016,04,29,09,23,12.50
2016,04,29,09,24,12.50
2016,04,29,09,26,12.60
2016,04,29,09,27,12.70
2016,04,29,09,28,12.70
2016,04,29,09,29,12.70
2016,04,29,09,31,12.70
2016,04,29,09,32,12.70
2016,04,29,09,33,12.70
2016,04,29,09,34,12.70
2016,04,29,09,36,12.70
2016,04,29,09,37,12.70
2016,04,29,09,38,12.70
2016,04,29,09,39,12.80
2016,04,29,09,41,12.80
2016,04,29,09,42,12.80
2016,04,29,09,43,12.80
2016,04,29,09,44,12.80
2016,04,29,09,45,12.70
2016,04,29,09,46,12.70
2016,04,29,09,47,12.70
2016,04,29,09,48,12.70
2016,04,29,09,49,12.70
2016,04,29,09,50,12.70
2016,04,29,09,51,12.70
2016,04,29,09,52,12.70
2016,04,29,09,53,12.60
2016,04,29,09,54,12.60
2016,04,29,09,55,12.50
2016,04,29,09,56,12.50
2016,04,29,09,57,12.50
2016,04,29,09,58,12.50
2016,04,29,09,59,12.50
2016,04,29,10,00,12.40
2016,04,29,10,01,12.40
2016,04,29,10,02,12.40
2016,04,29,10,03,12.40
2016,04,29,10,04,12.40
2016,04,29,10,05,12.40
2016,04,29,10,06,12.50
2016,04,29,10,07,12.50
2016,04,29,10,08,12.60
2016,04,29,10,09,12.60
2016,04,29,10,10,12.60
2016,04,29,10,11,12.70
2016,04,29,10,12,12.70
2016,04,29,10,13,12.80
2016,04,29,10,14,12.80
2016,04,29,10,15,12.80
2016,04,29,10,16,12.90
2016,04,29,10,17,12.90
2016,04,29,10,18,13.00
2016,04,29,10,19,13.10
2016,04,29,10,20,13.20
2016,04,29,10,21,13.30
2016,04,29,10,22,13.30
2016,04,29,10,23,13.40
2016,04,29,10,24,13.50
2016,04,29,10,25,13.60
2016,04,29,10,26,13.70
2016,04,29,10,27,13.70
2016,04,29,10,28,13.80
2016,04,29,10,29,13.90
2016,04,29,10,30,14.00
2016,04,29,10,31,14.10
2016,04,29,10,32,14.20
2016,04,29,10,33,14.20
2016,04,29,10,34,14.30
2016,04,29,10,35,14.50
2016,04,29,10,36,14.50
2016,04,29,10,37,14.60
2016,04,29,10,38,14.70
2016,04,29,10,39,14.80
2016,04,29,10,40,14.80
2016,04,29,10,41,14.90
2016,04,29,10,42,14.90
2016,04,29,10,43,15.00
2016,04,29,10,44,15.00
2016,04,29,10,45,15.10
2016,04,29,10,46,15.10
2016,04,29,10,47,15.20
2016,04,29,10,48,15.30
2016,04,29,10,49,15.30
2016,04,29,10,50,15.30
2016,04,29,10,51,15.40
2016,04,29,10,52,15.40
2016,04,29,10,53,15.50
2016,04,29,10,54,15.50
2016,04,29,10,55,15.60
2016,04,29,10,56,15.60
2016,04,29,10,57,15.60
2016,04,29,10,58,15.70
2016,04,29,10,59,15.80
2016,04,29,11,00,15.80
2016,04,29,11,01,15.80
2016,04,29,11,02,15.80
2016,04,29,11,22,15.70
2016,04,29,11,23,15.60
2016,04,29,11,24,15.60
2016,04,29,11,25,15.60
2016,04,29,11,26,15.60
2016,04,29,11,27,15.60
2016,04,29,11,28,15.60
2016,04,29,11,29,15.60
2016,04,29,11,30,15.60
2016,04,29,11,31,15.50
2016,04,29,11,32,15.50
2016,04,29,11,33,15.50
2016,04,29,11,34,15.40
2016,04,29,11,35,15.40
2016,04,29,11,36,15.40
2016,04,29,11,37,15.40
2016,04,29,11,38,15.40
2016,04,29,11,39,15.50
2016,04,29,11,40,15.50
2016,04,29,11,41,15.50
2016,04,29,11,42,15.50
2016,04,29,11,43,15.50
2016,04,29,11,44,15.50
2016,04,29,11,45,15.50
2016,04,29,11,46,15.50
2016,04,29,11,47,15.50
2016,04,29,11,48,15.50
2016,04,29,11,49,15.50
2016,04,29,11,50,15.50
2016,04,29,11,51,15.50
2016,04,29,11,52,15.50
2016,04,29,11,53,15.50
2016,04,29,11,54,15.50
2016,04,29,11,55,15.50
2016,04,29,11,56,15.50
2016,04,29,11,57,15.60
2016,04,29,11,58,15.60
2016,04,29,11,59,15.70
2016,04,29,12,00,15.70
2016,04,29,12,01,15.70
2016,04,29,12,02,15.70
2016,04,29,12,03,15.80
2016,04,29,12,04,15.80
2016,04,29,12,05,15.80
2016,04,29,12,06,15.70
2016,04,29,12,07,15.70
2016,04,29,12,08,15.60
2016,04,29,12,09,15.50
2016,04,29,12,10,15.50
2016,04,29,12,11,15.50
2016,04,29,12,12,15.50
2016,04,29,12,13,15.50
2016,04,29,12,14,15.60
2016,04,29,12,15,15.60
2016,04,29,12,16,15.70
2016,04,29,12,17,15.70
2016,04,29,12,19,15.60
2016,04,29,12,21,15.60
2016,04,29,12,22,15.60
2016,04,29,12,23,15.60
2016,04,29,12,24,15.60
2016,04,29,12,26,15.70
2016,04,29,12,27,15.70
2016,04,29,12,28,15.80
2016,04,29,12,29,15.80
2016,04,29,12,31,16.10
2016,04,29,12,32,16.10
2016,04,29,12,33,16.10
2016,04,29,12,34,16.20
2016,04,29,12,36,16.10
2016,04,29,12,37,16.10
2016,04,29,12,38,16.10
2016,04,29,12,39,16.20
2016,04,29,12,41,16.30
2016,04,29,12,42,16.30
2016,04,29,12,43,16.30
2016,04,29,12,44,16.30
2016,04,29,12,46,16.30
2016,04,29,12,47,16.30
2016,04,29,12,48,16.30
2016,04,29,12,49,16.40
2016,04,29,12,51,16.40
2016,04,29,12,52,16.40
2016,04,29,12,53,16.40
2016,04,29,12,54,16.60
2016,04,29,12,56,16.60
2016,04,29,12,57,16.60
2016,04,29,12,58,16.60
2016,04,29,12,59,16.60
2016,04,29,13,01,16.70
2016,04,29,13,02,16.70
2016,04,29,13,03,16.70
2016,04,29,13,04,16.70
2016,04,29,13,06,16.70
2016,04,29,13,07,16.70
2016,04,29,13,08,16.70
2016,04,29,13,09,16.70
2016,04,29,13,11,16.60
2016,04,29,13,12,16.60
2016,04,29,13,13,16.60
2016,04,29,13,14,16.60
2016,04,29,13,16,16.60
2016,04,29,13,17,16.60
2016,04,29,13,18,16.60
2016,04,29,13,19,16.60
2016,04,29,13,21,16.60
2016,04,29,13,22,16.60
2016,04,29,13,23,16.40
2016,04,29,13,24,16.60
2016,04,29,13,26,16.60
2016,04,29,13,27,16.60
2016,04,29,13,28,16.70
2016,04,29,13,29,16.70
2016,04,29,13,31,16.70
2016,04,29,13,32,16.80
2016,04,29,13,33,16.90
2016,04,29,13,34,17.00
2016,04,29,13,36,17.10
2016,04,29,13,37,17.20
2016,04,29,13,38,17.20
2016,04,29,13,39,17.20
2016,04,29,13,41,17.30
2016,04,29,13,42,17.30
2016,04,29,13,43,17.30
2016,04,29,13,44,17.30
2016,04,29,13,45,17.30
2016,04,29,13,46,17.30
2016,04,29,13,47,17.30
2016,04,29,13,48,17.30
2016,04,29,13,49,17.30
2016,04,29,13,50,17.30
2016,04,29,13,51,17.30
2016,04,29,13,52,17.30
2016,04,29,13,53,17.30
2016,04,29,13,54,17.30
2016,04,29,13,55,17.30
2016,04,29,13,56,17.30
2016,04,29,13,57,17.30
2016,04,29,13,58,17.30
2016,04,29,13,59,17.30
2016,04,29,14,00,17.30
2016,04,29,14,01,17.20
2016,04,29,14,02,17.20
2016,04,29,14,03,17.20
2016,04,29,14,04,17.20
2016,04,29,14,05,17.20
2016,04,29,14,06,17.20
2016,04,29,14,07,17.30
2016,04,29,14,08,17.30
2016,04,29,14,09,17.30
2016,04,29,14,10,17.30
2016,04,29,14,11,17.30
2016,04,29,14,12,17.40
2016,04,29,14,13,17.40
2016,04,29,14,14,17.50
2016,04,29,14,15,17.50
2016,04,29,14,16,17.60
2016,04,29,14,17,17.70
2016,04,29,14,18,17.80
2016,04,29,14,19,17.90
2016,04,29,14,20,17.90
2016,04,29,14,21,17.90
2016,04,29,14,22,18.10
2016,04,29,14,23,18.20
2016,04,29,14,24,18.20
2016,04,29,14,25,18.20
2016,04,29,14,26,18.20
2016,04,29,14,27,18.20
2016,04,29,14,28,18.20
2016,04,29,14,29,18.20
2016,04,29,14,30,18.20
2016,04,29,14,31,18.20
2016,04,29,14,32,18.20
2016,04,29,14,33,18.20
2016,04,29,14,34,18.20
2016,04,29,14,35,18.20
2016,04,29,14,36,18.20
2016,04,29,14,37,18.20
2016,04,29,14,38,18.20
2016,04,29,14,39,18.20
2016,04,29,14,40,18.20
2016,04,29,14,41,18.20
2016,04,29,14,42,18.20
2016,04,29,14,43,18.30
2016,04,29,14,44,18.30
2016,04,29,14,45,18.40
2016,04,29,14,46,18.40
2016,04,29,14,47,18.50
2016,04,29,14,48,18.60
2016,04,29,14,49,18.60
2016,04,29,14,50,18.60
2016,04,29,14,51,18.50
2016,04,29,14,52,18.50
2016,04,29,14,53,18.50
2016,04,29,14,54,18.40
2016,04,29,14,55,18.40
2016,04,29,14,56,18.40
2016,04,29,14,57,18.30
2016,04,29,14,58,18.30
2016,04,29,14,59,18.30
2016,04,29,15,00,18.30
2016,04,29,15,01,18.30
2016,04,29,15,02,18.30
2016,04,29,15,03,18.30
2016,04,29,15,04,18.20
2016,04,29,15,05,18.20
2016,04,29,15,06,18.30
2016,04,29,15,07,18.30
2016,04,29,15,08,18.30
2016,04,29,15,09,18.30
2016,04,29,15,10,18.30
2016,04,29,15,11,18.20
2016,04,29,15,13,18.20
2016,04,29,15,14,18.20
2016,04,29,15,16,17.90
2016,04,29,15,17,17.90
2016,04,29,15,18,17.90
2016,04,29,15,19,17.90
2016,04,29,15,21,17.80
2016,04,29,15,22,17.80
2016,04,29,15,23,17.70
2016,04,29,15,24,17.70
2016,04,29,15,26,17.80
2016,04,29,15,27,17.80
2016,04,29,15,28,17.80
2016,04,29,15,29,17.80
2016,04,29,15,31,17.70
2016,04,29,15,32,17.70
2016,04,29,15,33,17.80
2016,04,29,15,34,17.80
2016,04,29,15,36,17.80
2016,04,29,15,37,17.80
2016,04,29,15,38,17.80
2016,04,29,15,39,17.80
2016,04,29,15,41,17.80
2016,04,29,15,42,17.90
2016,04,29,15,43,17.80
2016,04,29,15,44,17.80
2016,04,29,15,46,17.90
2016,04,29,15,47,17.90
2016,04,29,15,48,17.90
2016,04,29,15,49,17.90
2016,04,29,15,51,17.90
2016,04,29,15,52,18.10
2016,04,29,15,53,18.10
2016,04,29,15,54,18.10
2016,04,29,15,56,18.10
2016,04,29,15,57,18.20
2016,04,29,15,58,18.20
2016,04,29,15,59,18.20
2016,04,29,16,01,18.20
2016,04,29,16,02,18.20
2016,04,29,16,03,18.20
2016,04,29,16,04,18.20
2016,04,29,16,06,18.20
2016,04,29,16,07,18.20
2016,04,29,16,08,18.20
2016,04,29,16,09,18.20
2016,04,29,16,11,18.20
2016,04,29,16,12,18.30
2016,04,29,16,13,18.30
2016,04,29,16,14,18.30
2016,04,29,16,16,18.40
2016,04,29,16,17,18.40
2016,04,29,16,18,18.40
2016,04,29,16,19,18.50
2016,04,29,16,21,18.60
2016,04,29,16,22,18.60
2016,04,29,16,23,18.70
2016,04,29,16,24,18.70
2016,04,29,16,26,18.60
2016,04,29,16,27,18.60
2016,04,29,16,28,18.60
2016,04,29,16,29,18.60
2016,04,29,16,31,18.50
2016,04,29,16,32,18.50
2016,04,29,16,33,18.40
2016,04,29,16,34,18.40
2016,04,29,16,36,18.30
2016,04,29,16,37,18.30
2016,04,29,16,38,18.20
2016,04,29,16,39,18.20
2016,04,29,16,41,18.20
2016,04,29,16,42,18.20
2016,04,29,16,43,18.20
2016,04,29,16,44,18.20
2016,04,29,16,45,18.20
2016,04,29,16,46,18.20
2016,04,29,16,47,18.20
2016,04,29,16,48,18.30
2016,04,29,16,49,18.30
2016,04,29,16,50,18.30
2016,04,29,16,51,18.30
2016,04,29,16,52,18.30
2016,04,29,16,53,18.30
2016,04,29,16,54,18.30
2016,04,29,16,55,18.30
2016,04,29,16,56,18.30
2016,04,29,16,57,18.40
2016,04,29,16,58,18.40
2016,04,29,16,59,18.40
2016,04,29,17,00,18.30
2016,04,29,17,01,18.20
2016,04,29,17,02,18.20
2016,04,29,17,03,18.10
2016,04,29,17,04,17.90
2016,04,29,17,05,17.90
2016,04,29,17,06,17.80
2016,04,29,17,07,17.80
2016,04,29,17,08,17.80
2016,04,29,17,09,17.80
2016,04,29,17,10,17.90
2016,04,29,17,11,17.90
2016,04,29,17,12,17.90
2016,04,29,17,13,17.90
2016,04,29,17,14,17.90
2016,04,29,17,15,17.90
2016,04,29,17,16,18.10
2016,04,29,17,17,18.10
2016,04,29,17,18,18.20
2016,04,29,17,19,18.20
2016,04,29,17,20,18.20
2016,04,29,17,21,18.20
2016,04,29,17,22,18.20
2016,04,29,17,23,18.20
2016,04,29,17,24,18.20
2016,04,29,17,25,18.20
2016,04,29,17,26,18.20
2016,04,29,17,27,18.10
2016,04,29,17,28,18.10
2016,04,29,17,29,18.10
2016,04,29,17,30,18.10
2016,04,29,17,31,18.10
2016,04,29,17,32,18.20
2016,04,29,17,33,18.20
2016,04,29,17,34,18.20
2016,04,29,17,35,18.20
2016,04,29,17,36,18.20
2016,04,29,17,37,18.20
2016,04,29,17,38,18.20
2016,04,29,17,39,18.20
2016,04,29,17,40,18.20
2016,04,29,17,41,18.20
2016,04,29,17,42,18.20
2016,04,29,17,43,18.20
2016,04,29,17,44,18.20
2016,04,29,17,45,18.20
2016,04,29,17,46,18.20
2016,04,29,17,47,18.20
2016,04,29,17,48,18.20
2016,04,29,17,49,18.20
2016,04,29,17,50,18.20
2016,04,29,17,51,18.20
2016,04,29,17,52,18.20
2016,04,29,17,53,18.20
2016,04,29,17,54,18.20
2016,04,29,17,55,18.10
2016,04,29,17,56,18.10
2016,04,29,17,57,18.10
2016,04,29,17,58,18.10
2016,04,29,17,59,18.10
2016,04,29,18,00,18.20
2016,04,29,18,01,18.20
2016,04,29,18,02,18.20
2016,04,29,18,03,18.20
2016,04,29,18,04,18.20
2016,04,29,18,05,18.20
2016,04,29,18,06,18.20
2016,04,29,18,07,18.30
2016,04,29,18,08,18.20
2016,04,29,18,09,18.20
2016,04,29,18,11,18.20
2016,04,29,18,13,18.20
2016,04,29,18,14,18.20
2016,04,29,18,16,18.20
2016,04,29,18,17,18.20
2016,04,29,18,18,18.20
2016,04,29,18,19,18.20
2016,04,29,18,21,18.10
2016,04,29,18,22,18.10
2016,04,29,18,23,17.90
2016,04,29,18,24,17.90
2016,04,29,18,26,17.70
2016,04,29,18,27,17.60
2016,04,29,18,28,17.60
2016,04,29,18,29,17.50
2016,04,29,18,30,17.40
2016,04,29,18,32,17.30
2016,04,29,18,33,17.30
2016,04,29,18,34,17.30
2016,04,29,18,36,17.20
2016,04,29,18,37,17.10
2016,04,29,18,38,17.10
2016,04,29,18,39,17.00
2016,04,29,18,41,16.70
2016,04,29,18,42,16.70
2016,04,29,18,43,16.60
2016,04,29,18,44,16.40
2016,04,29,18,46,16.30
2016,04,29,18,47,16.10
2016,04,29,18,48,16.10
2016,04,29,18,49,15.90
2016,04,29,18,51,15.70
2016,04,29,18,52,15.60
2016,04,29,18,53,15.50
2016,04,29,18,54,15.40
2016,04,29,18,56,15.30
2016,04,29,18,57,15.20
2016,04,29,18,58,15.10
2016,04,29,18,59,15.00
2016,04,29,19,01,15.00
2016,04,29,19,02,14.90
2016,04,29,19,03,14.90
2016,04,29,19,04,14.90
2016,04,29,19,06,14.90
2016,04,29,19,07,15.00
2016,04,29,19,08,15.00
2016,04,29,19,09,15.00
2016,04,29,19,11,15.00
2016,04,29,19,12,15.00
2016,04,29,19,13,14.90
2016,04,29,19,14,14.90
2016,04,29,19,16,14.90
2016,04,29,19,17,14.80
2016,04,29,19,18,14.80
2016,04,29,19,19,14.80
2016,04,29,19,21,14.70
2016,04,29,19,22,14.70
2016,04,29,19,23,14.70
2016,04,29,19,24,14.60
2016,04,29,19,26,14.50
2016,04,29,19,27,14.50
2016,04,29,19,28,14.40
2016,04,29,19,29,14.40
2016,04,29,19,31,14.30
2016,04,29,19,32,14.30
2016,04,29,19,33,14.30
2016,04,29,19,34,14.20
2016,04,29,19,36,14.20
2016,04,29,19,37,14.20
2016,04,29,19,38,14.20
2016,04,29,19,39,14.10
2016,04,29,19,40,14.10
2016,04,29,19,41,14.10
2016,04,29,19,42,14.00
2016,04,29,19,43,14.00
2016,04,29,19,44,13.90
2016,04,29,19,45,13.90
2016,04,29,19,46,13.90
2016,04,29,19,47,13.80
2016,04,29,19,48,13.80
2016,04,29,19,49,13.70
2016,04,29,19,50,13.70
2016,04,29,19,51,13.70
2016,04,29,19,52,13.70
2016,04,29,19,53,13.70
2016,04,29,19,54,13.70
2016,04,29,19,55,13.60
2016,04,29,19,56,13.60
2016,04,29,19,57,13.60
2016,04,29,19,58,13.60
2016,04,29,19,59,13.50
2016,04,29,20,00,13.50
2016,04,29,20,01,13.50
2016,04,29,20,02,13.50
2016,04,29,20,03,13.40
2016,04,29,20,04,13.40
2016,04,29,20,05,13.40
2016,04,29,20,06,13.40
2016,04,29,20,07,13.30
2016,04,29,20,08,13.30
2016,04,29,20,09,13.30
2016,04,29,20,10,13.30
2016,04,29,20,11,13.30
2016,04,29,20,12,13.30
2016,04,29,20,13,13.30
2016,04,29,20,14,13.30
2016,04,29,20,15,13.30
2016,04,29,20,16,13.20
2016,04,29,20,17,13.20
2016,04,29,20,18,13.20
2016,04,29,20,19,13.20
2016,04,29,20,20,13.10
2016,04,29,20,21,13.10
2016,04,29,20,22,13.10
2016,04,29,20,23,13.10
2016,04,29,20,24,13.00
2016,04,29,20,25,13.00
2016,04,29,20,26,13.00
2016,04,29,20,27,12.90
2016,04,29,20,28,12.90
2016,04,29,20,29,12.90
2016,04,29,20,30,12.90
2016,04,29,20,31,12.80
2016,04,29,20,32,12.80
2016,04,29,20,33,12.80
2016,04,29,20,34,12.80
2016,04,29,20,35,12.80
2016,04,29,20,36,12.80
2016,04,29,20,37,12.80
2016,04,29,20,38,12.70
2016,04,29,20,39,12.70
2016,04,29,20,40,12.70
2016,04,29,20,41,12.70
2016,04,29,20,42,12.60
2016,04,29,20,43,12.60
2016,04,29,20,44,12.60
2016,04,29,20,45,12.60
2016,04,29,20,46,12.50
2016,04,29,20,47,12.50
2016,04,29,20,48,12.50
2016,04,29,20,49,12.50
2016,04,29,20,50,12.50
2016,04,29,20,51,12.40
2016,04,29,20,52,12.40
2016,04,29,20,53,12.40
2016,04,29,20,54,12.40
2016,04,29,20,55,12.40
2016,04,29,20,56,12.30
2016,04,29,20,57,12.30
2016,04,29,20,58,12.30
2016,04,29,20,59,12.30
2016,04,29,21,00,12.30
2016,04,29,21,02,12.30
2016,04,29,21,03,12.30
2016,04,29,21,04,12.30
2016,04,29,21,06,12.20
2016,04,29,21,07,12.20
2016,04,29,21,09,12.20
2016,04,29,21,11,12.10
2016,04,29,21,12,12.10
2016,04,29,21,13,12.10
2016,04,29,21,14,12.10
2016,04,29,21,16,12.00
2016,04,29,21,17,12.00
2016,04,29,21,18,12.00
2016,04,29,21,19,11.90
2016,04,29,21,21,11.90
2016,04,29,21,22,11.90
2016,04,29,21,23,11.90
2016,04,29,21,24,11.90
2016,04,29,21,26,11.80
2016,04,29,21,27,11.80
2016,04,29,21,28,11.80
2016,04,29,21,29,11.80
2016,04,29,21,31,11.80
2016,04,29,21,32,11.80
2016,04,29,21,33,11.80
2016,04,29,21,34,11.80
2016,04,29,21,36,11.70
2016,04,29,21,37,11.70
2016,04,29,21,38,11.70
2016,04,29,21,39,11.70
2016,04,29,21,41,11.60
2016,04,29,21,42,11.60
2016,04,29,21,43,11.60
2016,04,29,21,44,11.60
2016,04,29,21,46,11.60
2016,04,29,21,47,11.60
2016,04,29,21,48,11.60
2016,04,29,21,49,11.60
2016,04,29,21,51,11.60
2016,04,29,21,52,11.60
2016,04,29,21,53,11.40
2016,04,29,21,54,11.40
2016,04,29,21,56,11.40
2016,04,29,21,57,11.40
2016,04,29,21,58,11.40
2016,04,29,21,59,11.40
2016,04,29,22,01,11.40
2016,04,29,22,02,11.40
2016,04,29,22,03,11.40
2016,04,29,22,04,11.40
2016,04,29,22,06,11.30
2016,04,29,22,07,11.30
2016,04,29,22,08,11.30
2016,04,29,22,09,11.30
2016,04,29,22,11,11.30
2016,04,29,22,12,11.20
2016,04,29,22,13,11.20
2016,04,29,22,14,11.20
2016,04,29,22,15,11.20
2016,04,29,22,16,11.20
2016,04,29,22,17,11.20
2016,04,29,22,18,11.20
2016,04,29,22,19,11.20
2016,04,29,22,21,11.10
2016,04,29,22,22,11.10
2016,04,29,22,23,11.10
2016,04,29,22,24,11.10
2016,04,29,22,25,11.10
2016,04,29,22,26,11.10
2016,04,29,22,27,11.10
2016,04,29,22,28,11.10
2016,04,29,22,29,11.10
2016,04,29,22,30,11.10
2016,04,29,22,31,11.10
2016,04,29,22,32,11.10
2016,04,29,22,33,11.10
2016,04,29,22,34,11.10
2016,04,29,22,35,11.10
2016,04,29,22,36,10.90
2016,04,29,22,37,10.90
2016,04,29,22,38,10.90
2016,04,29,22,39,10.90
2016,04,29,22,40,10.90
2016,04,29,22,41,10.90
2016,04,29,22,42,10.90
2016,04,29,22,43,10.90
2016,04,29,22,44,10.90
2016,04,29,22,45,10.90
2016,04,29,22,46,10.90
2016,04,29,22,47,10.90
2016,04,29,22,48,10.90
2016,04,29,22,49,10.90